LOCATION_NAME,SAMPLE COLLECTION TIME,DOSE EQUIVALENT RATE (nSv/h),GAMMA COUNT RATE R02 (CPM),GAMMA COUNT RATE R03 (CPM),GAMMA COUNT RATE R04 (CPM),GAMMA COUNT RATE R05 (CPM),GAMMA COUNT RATE R06 (CPM),GAMMA COUNT RATE R07 (CPM),GAMMA COUNT RATE R08 (CPM),GAMMA COUNT RATE R09 (CPM),STATUS
WA: RICHLAND,01/01/2016 00:04:00,,2506.00,1565.00,452.00,261.00,155.00,193.00,111.00,49.00,APPROVED
WA: RICHLAND,01/01/2016 01:04:00,,2534.00,1577.00,459.00,263.00,159.00,193.00,111.00,49.00,APPROVED
WA: RICHLAND,01/01/2016 02:05:00,,2522.00,1581.00,463.00,264.00,157.00,193.00,109.00,49.00,APPROVED
WA: RICHLAND,01/01/2016 03:05:00,,2541.00,1592.00,469.00,261.00,154.00,199.00,111.00,50.00,APPROVED
WA: RICHLAND,01/01/2016 04:05:00,,2580.00,1614.00,465.00,268.00,159.00,201.00,114.00,50.00,APPROVED
WA: RICHLAND,01/01/2016 05:05:00,,2586.00,1589.00,484.00,254.00,157.00,211.00,99.00,49.00,APPROVED
WA: RICHLAND,01/01/2016 06:06:00,,2609.00,1605.00,504.00,244.00,156.00,220.00,91.00,50.00,APPROVED
WA: RICHLAND,01/01/2016 07:06:00,,2641.00,1670.00,498.00,273.00,162.00,217.00,114.00,50.00,APPROVED
WA: RICHLAND,01/01/2016 08:06:00,,2633.00,1660.00,485.00,277.00,164.00,208.00,113.00,52.00,APPROVED
WA: RICHLAND,01/01/2016 09:06:00,,2622.00,1659.00,483.00,274.00,157.00,205.00,113.00,52.00,APPROVED
WA: RICHLAND,01/01/2016 10:06:00,,2640.00,1681.00,486.00,278.00,159.00,206.00,119.00,52.00,APPROVED
WA: RICHLAND,01/01/2016 11:07:00,,2644.00,1687.00,483.00,284.00,164.00,210.00,121.00,52.00,APPROVED
WA: RICHLAND,01/01/2016 12:07:00,,2635.00,1665.00,477.00,275.00,161.00,204.00,114.00,51.00,APPROVED
WA: RICHLAND,01/01/2016 13:07:00,,2627.00,1642.00,475.00,267.00,156.00,204.00,113.00,51.00,APPROVED
WA: RICHLAND,01/01/2016 14:07:00,,2667.00,1671.00,487.00,272.00,161.00,206.00,111.00,51.00,APPROVED
WA: RICHLAND,01/01/2016 15:08:00,,2671.00,1694.00,483.00,279.00,162.00,207.00,116.00,49.00,APPROVED
WA: RICHLAND,01/01/2016 16:08:00,,2669.00,1688.00,488.00,275.00,160.00,208.00,117.00,51.00,APPROVED
WA: RICHLAND,01/01/2016 17:08:00,,2658.00,1687.00,485.00,284.00,166.00,211.00,117.00,50.00,APPROVED
WA: RICHLAND,01/01/2016 18:08:00,,2646.00,1704.00,493.00,289.00,164.00,218.00,120.00,51.00,APPROVED
WA: RICHLAND,01/01/2016 19:08:00,,2626.00,1678.00,484.00,283.00,163.00,213.00,115.00,50.00,APPROVED
WA: RICHLAND,01/01/2016 20:09:00,,2629.00,1671.00,488.00,273.00,161.00,206.00,119.00,50.00,APPROVED
WA: RICHLAND,01/01/2016 21:09:00,,2611.00,1676.00,489.00,286.00,163.00,207.00,116.00,51.00,APPROVED
WA: RICHLAND,01/01/2016 22:09:00,,2679.00,1728.00,498.00,293.00,166.00,219.00,123.00,50.00,APPROVED
WA: RICHLAND,01/01/2016 23:09:00,,2679.00,1725.00,498.00,292.00,167.00,218.00,122.00,52.00,APPROVED
WA: RICHLAND,01/02/2016 00:10:00,,2681.00,1691.00,491.00,278.00,162.00,212.00,119.00,50.00,APPROVED
WA: RICHLAND,01/02/2016 01:10:00,,2678.00,1678.00,480.00,274.00,162.00,208.00,114.00,50.00,APPROVED
WA: RICHLAND,01/02/2016 02:10:00,,2650.00,1667.00,483.00,278.00,162.00,209.00,114.00,50.00,APPROVED
WA: RICHLAND,01/02/2016 03:10:00,,2578.00,1626.00,468.00,271.00,158.00,205.00,113.00,48.00,APPROVED
WA: RICHLAND,01/02/2016 04:10:00,,2573.00,1617.00,473.00,268.00,156.00,201.00,113.00,50.00,APPROVED
WA: RICHLAND,01/02/2016 05:11:00,,2565.00,1601.00,461.00,264.00,158.00,200.00,116.00,50.00,APPROVED
WA: RICHLAND,01/02/2016 06:11:00,,2547.00,1572.00,454.00,256.00,154.00,191.00,110.00,49.00,APPROVED
WA: RICHLAND,01/02/2016 07:11:00,,2544.00,1580.00,458.00,258.00,154.00,197.00,110.00,48.00,APPROVED
WA: RICHLAND,01/02/2016 08:11:00,,2579.00,1605.00,467.00,262.00,154.00,197.00,110.00,51.00,APPROVED
WA: RICHLAND,01/02/2016 09:12:00,,2595.00,1625.00,467.00,269.00,158.00,205.00,113.00,48.00,APPROVED
WA: RICHLAND,01/02/2016 10:12:00,,2619.00,1639.00,473.00,271.00,158.00,205.00,114.00,49.00,APPROVED
WA: RICHLAND,01/02/2016 11:12:00,,2631.00,1653.00,480.00,275.00,161.00,206.00,114.00,51.00,APPROVED
WA: RICHLAND,01/02/2016 12:12:00,,2642.00,1684.00,485.00,279.00,164.00,207.00,116.00,50.00,APPROVED
WA: RICHLAND,01/02/2016 13:12:00,,2600.00,1649.00,480.00,276.00,162.00,203.00,117.00,51.00,APPROVED
WA: RICHLAND,01/02/2016 14:13:00,,2610.00,1642.00,474.00,267.00,159.00,202.00,113.00,51.00,APPROVED
WA: RICHLAND,01/02/2016 15:13:00,,2670.00,1689.00,487.00,280.00,163.00,211.00,117.00,50.00,APPROVED
WA: RICHLAND,01/02/2016 16:13:00,,2695.00,1730.00,501.00,287.00,165.00,214.00,120.00,51.00,APPROVED
WA: RICHLAND,01/02/2016 17:13:00,,2682.00,1726.00,499.00,286.00,168.00,215.00,121.00,51.00,APPROVED
WA: RICHLAND,01/02/2016 18:14:00,,2704.00,1723.00,503.00,284.00,166.00,216.00,119.00,50.00,APPROVED
WA: RICHLAND,01/02/2016 19:14:00,,2689.00,1732.00,509.00,288.00,164.00,217.00,117.00,51.00,APPROVED
WA: RICHLAND,01/02/2016 20:14:00,,2641.00,1689.00,491.00,281.00,165.00,209.00,118.00,51.00,APPROVED
WA: RICHLAND,01/02/2016 21:14:00,,2690.00,1719.00,502.00,285.00,163.00,218.00,117.00,52.00,APPROVED
WA: RICHLAND,01/02/2016 22:14:00,,2729.00,1763.00,516.00,300.00,173.00,227.00,123.00,52.00,APPROVED
WA: RICHLAND,01/02/2016 23:15:00,,2733.00,1803.00,522.00,309.00,172.00,231.00,126.00,51.00,APPROVED
WA: RICHLAND,01/03/2016 00:15:00,,2764.00,1836.00,537.00,319.00,178.00,234.00,128.00,53.00,APPROVED
WA: RICHLAND,01/03/2016 01:15:00,,2757.00,1846.00,536.00,315.00,175.00,239.00,126.00,54.00,APPROVED
WA: RICHLAND,01/03/2016 02:15:00,,2779.00,1830.00,534.00,316.00,177.00,239.00,127.00,53.00,APPROVED
WA: RICHLAND,01/03/2016 03:16:00,,2714.00,1781.00,516.00,302.00,172.00,229.00,124.00,51.00,APPROVED
WA: RICHLAND,01/03/2016 04:16:00,,2666.00,1718.00,497.00,292.00,169.00,218.00,121.00,53.00,APPROVED
WA: RICHLAND,01/03/2016 05:16:00,,2685.00,1722.00,497.00,290.00,166.00,216.00,119.00,51.00,APPROVED
WA: RICHLAND,01/03/2016 06:16:00,,2680.00,1745.00,506.00,294.00,169.00,223.00,118.00,53.00,APPROVED
WA: RICHLAND,01/03/2016 07:16:00,,2700.00,1762.00,511.00,298.00,171.00,223.00,121.00,53.00,APPROVED
WA: RICHLAND,01/03/2016 08:17:00,,2681.00,1763.00,512.00,298.00,169.00,224.00,121.00,52.00,APPROVED
WA: RICHLAND,01/03/2016 09:17:00,,2692.00,1746.00,511.00,297.00,167.00,220.00,122.00,50.00,APPROVED
WA: RICHLAND,01/03/2016 10:17:00,,2690.00,1758.00,507.00,294.00,170.00,221.00,121.00,52.00,APPROVED
WA: RICHLAND,01/03/2016 11:17:00,,2688.00,1726.00,502.00,283.00,166.00,218.00,117.00,51.00,APPROVED
WA: RICHLAND,01/03/2016 12:18:00,,2692.00,1702.00,498.00,281.00,163.00,214.00,114.00,50.00,APPROVED
WA: RICHLAND,01/03/2016 13:18:00,,2709.00,1732.00,502.00,283.00,166.00,213.00,115.00,51.00,APPROVED
WA: RICHLAND,01/03/2016 14:18:00,,2704.00,1741.00,504.00,288.00,169.00,215.00,120.00,50.00,APPROVED
WA: RICHLAND,01/03/2016 15:18:00,,2708.00,1738.00,503.00,288.00,170.00,218.00,118.00,53.00,APPROVED
WA: RICHLAND,01/03/2016 16:18:00,,2716.00,1764.00,506.00,295.00,170.00,217.00,122.00,54.00,APPROVED
WA: RICHLAND,01/03/2016 17:19:00,,2724.00,1748.00,505.00,291.00,169.00,221.00,120.00,54.00,APPROVED
WA: RICHLAND,01/03/2016 18:19:00,,2747.00,1770.00,512.00,294.00,171.00,223.00,120.00,52.00,APPROVED
WA: RICHLAND,01/03/2016 19:19:00,,2918.00,1898.00,541.00,315.00,179.00,230.00,127.00,53.00,APPROVED
WA: RICHLAND,01/03/2016 20:19:00,,3020.00,1987.00,574.00,333.00,186.00,245.00,130.00,55.00,APPROVED
WA: RICHLAND,01/03/2016 21:19:00,,2961.00,1940.00,560.00,326.00,181.00,239.00,134.00,56.00,APPROVED
WA: RICHLAND,01/03/2016 22:20:00,,2944.00,1939.00,559.00,332.00,180.00,240.00,131.00,54.00,APPROVED
WA: RICHLAND,01/03/2016 23:20:00,,2826.00,1833.00,531.00,310.00,175.00,230.00,128.00,53.00,APPROVED
WA: RICHLAND,01/04/2016 00:20:00,,2742.00,1775.00,514.00,300.00,167.00,219.00,122.00,52.00,APPROVED
WA: RICHLAND,01/04/2016 01:20:00,,2752.00,1771.00,512.00,303.00,170.00,215.00,123.00,53.00,APPROVED
WA: RICHLAND,01/04/2016 02:21:00,,2784.00,1805.00,522.00,306.00,173.00,224.00,121.00,52.00,APPROVED
WA: RICHLAND,01/04/2016 03:21:00,,2742.00,1786.00,514.00,304.00,169.00,220.00,123.00,52.00,APPROVED
WA: RICHLAND,01/04/2016 04:21:00,,2729.00,1788.00,508.00,308.00,176.00,223.00,126.00,54.00,APPROVED
WA: RICHLAND,01/04/2016 05:21:00,,2739.00,1792.00,516.00,312.00,174.00,222.00,123.00,53.00,APPROVED
WA: RICHLAND,01/04/2016 06:21:00,,2727.00,1789.00,520.00,308.00,170.00,224.00,125.00,53.00,APPROVED
WA: RICHLAND,01/04/2016 07:22:00,,2707.00,1766.00,508.00,305.00,173.00,219.00,124.00,52.00,APPROVED
WA: RICHLAND,01/04/2016 08:22:00,,2749.00,1827.00,520.00,316.00,174.00,226.00,128.00,54.00,APPROVED
WA: RICHLAND,01/04/2016 09:22:00,,2738.00,1833.00,527.00,320.00,175.00,231.00,128.00,55.00,APPROVED
WA: RICHLAND,01/04/2016 10:22:00,,2750.00,1838.00,522.00,319.00,177.00,235.00,129.00,54.00,APPROVED
WA: RICHLAND,01/04/2016 11:23:00,,2756.00,1830.00,526.00,319.00,177.00,230.00,129.00,54.00,APPROVED
WA: RICHLAND,01/04/2016 12:23:00,,2737.00,1795.00,518.00,317.00,174.00,225.00,128.00,53.00,APPROVED
WA: RICHLAND,01/04/2016 13:23:00,,2757.00,1850.00,523.00,323.00,176.00,227.00,131.00,54.00,APPROVED
WA: RICHLAND,01/04/2016 14:23:00,,2799.00,1896.00,543.00,338.00,182.00,239.00,133.00,54.00,APPROVED
WA: RICHLAND,01/04/2016 15:23:00,,2821.00,1959.00,555.00,351.00,187.00,249.00,142.00,55.00,APPROVED
WA: RICHLAND,01/04/2016 16:24:00,,2811.00,1959.00,565.00,358.00,187.00,252.00,138.00,55.00,APPROVED
WA: RICHLAND,01/04/2016 17:24:00,,2791.00,1919.00,560.00,347.00,184.00,246.00,137.00,57.00,APPROVED
WA: RICHLAND,01/04/2016 18:24:00,,2789.00,1915.00,543.00,352.00,186.00,247.00,139.00,55.00,APPROVED
WA: RICHLAND,01/04/2016 19:24:00,,2765.00,1873.00,538.00,335.00,184.00,237.00,134.00,56.00,APPROVED
WA: RICHLAND,01/04/2016 20:25:00,,2770.00,1865.00,530.00,339.00,183.00,234.00,133.00,55.00,APPROVED
WA: RICHLAND,01/04/2016 21:25:00,,2776.00,1861.00,529.00,337.00,178.00,235.00,134.00,54.00,APPROVED
WA: RICHLAND,01/11/2016 15:50:00,,2394.00,1427.00,405.00,216.00,139.00,162.00,99.00,44.00,APPROVED
WA: RICHLAND,01/11/2016 16:50:00,,2443.00,1503.00,426.00,242.00,145.00,178.00,107.00,48.00,APPROVED
WA: RICHLAND,01/11/2016 17:50:00,,2459.00,1515.00,433.00,247.00,150.00,182.00,110.00,48.00,APPROVED
WA: RICHLAND,01/11/2016 18:50:00,,2464.00,1502.00,430.00,245.00,149.00,181.00,107.00,47.00,APPROVED
WA: RICHLAND,01/11/2016 19:50:00,,2441.00,1494.00,421.00,244.00,146.00,177.00,107.00,46.00,APPROVED
WA: RICHLAND,01/11/2016 20:51:00,,2458.00,1517.00,428.00,245.00,148.00,181.00,109.00,47.00,APPROVED
WA: RICHLAND,01/11/2016 21:51:00,,2457.00,1516.00,427.00,242.00,148.00,183.00,107.00,49.00,APPROVED
WA: RICHLAND,01/11/2016 22:51:00,,2458.00,1516.00,431.00,246.00,148.00,179.00,108.00,47.00,APPROVED
WA: RICHLAND,01/11/2016 23:51:00,,2458.00,1535.00,431.00,249.00,149.00,178.00,109.00,50.00,APPROVED
WA: RICHLAND,01/12/2016 00:52:00,,2465.00,1522.00,428.00,247.00,149.00,182.00,109.00,49.00,APPROVED
WA: RICHLAND,01/12/2016 01:52:00,,2462.00,1533.00,435.00,246.00,149.00,183.00,112.00,49.00,APPROVED
WA: RICHLAND,01/12/2016 02:52:00,,2487.00,1549.00,441.00,255.00,150.00,185.00,111.00,47.00,APPROVED
WA: RICHLAND,01/12/2016 03:52:00,,2515.00,1590.00,448.00,261.00,155.00,190.00,113.00,49.00,APPROVED
WA: RICHLAND,01/12/2016 04:52:00,,2534.00,1591.00,453.00,266.00,156.00,194.00,115.00,49.00,APPROVED
WA: RICHLAND,01/12/2016 05:53:00,,2539.00,1612.00,455.00,271.00,158.00,197.00,116.00,50.00,APPROVED
WA: RICHLAND,01/12/2016 06:53:00,,2555.00,1657.00,466.00,284.00,162.00,200.00,117.00,52.00,APPROVED
WA: RICHLAND,01/12/2016 07:53:00,,2586.00,1671.00,475.00,282.00,161.00,201.00,120.00,53.00,APPROVED
WA: RICHLAND,01/12/2016 08:53:00,,2592.00,1677.00,471.00,287.00,162.00,202.00,122.00,52.00,APPROVED
WA: RICHLAND,01/12/2016 09:54:00,,2645.00,1770.00,495.00,309.00,168.00,214.00,126.00,52.00,APPROVED
WA: RICHLAND,01/12/2016 10:54:00,,2663.00,1788.00,502.00,312.00,170.00,220.00,128.00,55.00,APPROVED
WA: RICHLAND,01/12/2016 11:54:00,,2666.00,1785.00,505.00,315.00,176.00,221.00,130.00,56.00,APPROVED
WA: RICHLAND,01/12/2016 12:54:00,,2685.00,1802.00,510.00,314.00,175.00,226.00,129.00,55.00,APPROVED
WA: RICHLAND,01/12/2016 13:54:00,,2698.00,1815.00,508.00,319.00,175.00,227.00,130.00,56.00,APPROVED
WA: RICHLAND,01/12/2016 14:55:00,,2679.00,1797.00,512.00,314.00,172.00,224.00,131.00,55.00,APPROVED
WA: RICHLAND,01/12/2016 15:55:00,,2675.00,1805.00,512.00,322.00,175.00,222.00,132.00,54.00,APPROVED
WA: RICHLAND,01/12/2016 16:55:00,,2662.00,1781.00,510.00,319.00,168.00,222.00,129.00,54.00,APPROVED
WA: RICHLAND,01/12/2016 17:55:00,,2644.00,1756.00,500.00,312.00,170.00,220.00,128.00,53.00,APPROVED
WA: RICHLAND,01/12/2016 18:56:00,,2652.00,1766.00,495.00,310.00,171.00,217.00,129.00,54.00,APPROVED
WA: RICHLAND,01/12/2016 19:56:00,,2664.00,1778.00,504.00,315.00,172.00,218.00,130.00,54.00,APPROVED
WA: RICHLAND,01/12/2016 20:56:00,,2675.00,1799.00,505.00,324.00,171.00,224.00,133.00,55.00,APPROVED
WA: RICHLAND,01/12/2016 21:56:00,,2613.00,1754.00,498.00,315.00,174.00,220.00,131.00,56.00,APPROVED
WA: RICHLAND,01/12/2016 22:56:00,,2620.00,1730.00,492.00,303.00,170.00,211.00,126.00,53.00,APPROVED
WA: RICHLAND,01/12/2016 23:57:00,,2642.00,1733.00,494.00,301.00,168.00,211.00,126.00,53.00,APPROVED
WA: RICHLAND,01/13/2016 00:57:00,,2641.00,1727.00,486.00,295.00,166.00,207.00,122.00,52.00,APPROVED
WA: RICHLAND,01/13/2016 01:57:00,,,,,,,,,,APPROVED
WA: RICHLAND,01/13/2016 02:57:00,,2708.00,1789.00,502.00,304.00,171.00,215.00,126.00,53.00,APPROVED
WA: RICHLAND,01/13/2016 03:58:00,,2808.00,1870.00,517.00,325.00,174.00,224.00,132.00,56.00,APPROVED
WA: RICHLAND,01/13/2016 04:58:00,,2797.00,1861.00,520.00,323.00,176.00,225.00,133.00,56.00,APPROVED
WA: RICHLAND,01/13/2016 05:58:00,,2809.00,1869.00,537.00,326.00,178.00,228.00,130.00,55.00,APPROVED
WA: RICHLAND,01/13/2016 06:58:00,,2738.00,1840.00,522.00,324.00,172.00,224.00,132.00,56.00,APPROVED
WA: RICHLAND,01/13/2016 07:58:00,,2643.00,1743.00,496.00,310.00,171.00,215.00,126.00,55.00,APPROVED
WA: RICHLAND,01/13/2016 08:59:00,,2603.00,1682.00,482.00,292.00,165.00,206.00,119.00,54.00,APPROVED
WA: RICHLAND,01/13/2016 09:59:00,,2649.00,1759.00,498.00,310.00,170.00,218.00,129.00,52.00,APPROVED
WA: RICHLAND,01/13/2016 10:59:00,,2614.00,1726.00,492.00,306.00,171.00,216.00,129.00,53.00,APPROVED
WA: RICHLAND,01/13/2016 11:59:00,,2617.00,1734.00,490.00,311.00,168.00,214.00,126.00,53.00,APPROVED
WA: RICHLAND,01/13/2016 13:00:00,,2589.00,1694.00,482.00,298.00,168.00,213.00,123.00,51.00,APPROVED
WA: RICHLAND,01/13/2016 14:00:00,,2582.00,1715.00,482.00,301.00,166.00,213.00,125.00,53.00,APPROVED
WA: RICHLAND,01/13/2016 15:00:00,,2561.00,1701.00,484.00,301.00,165.00,208.00,123.00,55.00,APPROVED
WA: RICHLAND,01/13/2016 16:00:00,,2579.00,1704.00,485.00,304.00,170.00,212.00,126.00,53.00,APPROVED
WA: RICHLAND,01/13/2016 17:00:00,,2600.00,1745.00,489.00,311.00,170.00,216.00,128.00,54.00,APPROVED
WA: RICHLAND,01/13/2016 18:01:00,,2607.00,1757.00,498.00,318.00,175.00,216.00,127.00,54.00,APPROVED
WA: RICHLAND,01/13/2016 19:01:00,,2605.00,1730.00,486.00,310.00,166.00,214.00,126.00,53.00,APPROVED
WA: RICHLAND,01/13/2016 20:01:00,,2586.00,1719.00,485.00,305.00,170.00,213.00,126.00,53.00,APPROVED
WA: RICHLAND,01/13/2016 21:01:00,,2590.00,1733.00,487.00,311.00,168.00,214.00,125.00,54.00,APPROVED
WA: RICHLAND,01/13/2016 22:01:00,,2637.00,1748.00,498.00,309.00,169.00,214.00,127.00,52.00,APPROVED
WA: RICHLAND,01/13/2016 23:02:00,,2600.00,1702.00,485.00,302.00,167.00,208.00,123.00,55.00,APPROVED
WA: RICHLAND,01/14/2016 00:02:00,,2583.00,1681.00,474.00,298.00,166.00,205.00,123.00,52.00,APPROVED
WA: RICHLAND,01/14/2016 01:02:00,,2563.00,1654.00,465.00,288.00,163.00,200.00,120.00,51.00,APPROVED
WA: RICHLAND,01/14/2016 02:02:00,,2557.00,1698.00,485.00,299.00,166.00,210.00,123.00,52.00,APPROVED
WA: RICHLAND,01/14/2016 03:03:00,,2571.00,1750.00,493.00,319.00,171.00,222.00,132.00,56.00,APPROVED
WA: RICHLAND,01/14/2016 04:03:00,,2610.00,1760.00,498.00,318.00,176.00,219.00,130.00,56.00,APPROVED
WA: RICHLAND,01/14/2016 05:03:00,,2543.00,1671.00,476.00,295.00,166.00,208.00,124.00,52.00,APPROVED
WA: RICHLAND,01/14/2016 06:03:00,,2438.00,1570.00,456.00,273.00,158.00,192.00,115.00,50.00,APPROVED
WA: RICHLAND,01/14/2016 07:03:00,,2399.00,1498.00,431.00,250.00,149.00,183.00,113.00,48.00,APPROVED
WA: RICHLAND,01/14/2016 08:04:00,,2349.00,1437.00,420.00,234.00,145.00,177.00,109.00,49.00,APPROVED
WA: RICHLAND,01/14/2016 09:04:00,,2321.00,1379.00,400.00,218.00,136.00,170.00,103.00,45.00,APPROVED
WA: RICHLAND,01/14/2016 10:04:00,,2273.00,1350.00,392.00,209.00,135.00,160.00,96.00,44.00,APPROVED
WA: RICHLAND,01/14/2016 11:04:00,,2281.00,1332.00,383.00,201.00,134.00,156.00,99.00,45.00,APPROVED
WA: RICHLAND,01/14/2016 12:05:00,,2266.00,1328.00,388.00,205.00,134.00,155.00,95.00,45.00,APPROVED
WA: RICHLAND,01/14/2016 13:05:00,,2273.00,1339.00,387.00,202.00,134.00,157.00,97.00,45.00,APPROVED
WA: RICHLAND,01/14/2016 14:05:00,,2285.00,1326.00,389.00,204.00,134.00,154.00,97.00,45.00,APPROVED
WA: RICHLAND,01/14/2016 15:05:00,,2255.00,1316.00,383.00,197.00,131.00,157.00,97.00,45.00,APPROVED
WA: RICHLAND,01/14/2016 16:05:00,,2242.00,1313.00,382.00,198.00,127.00,156.00,98.00,45.00,APPROVED
WA: RICHLAND,01/14/2016 17:06:00,,2250.00,1308.00,378.00,199.00,132.00,155.00,96.00,45.00,APPROVED
WA: RICHLAND,01/14/2016 18:06:00,,2256.00,1321.00,381.00,203.00,133.00,152.00,95.00,45.00,APPROVED
WA: RICHLAND,01/14/2016 19:06:00,,2252.00,1321.00,385.00,201.00,133.00,154.00,96.00,45.00,APPROVED
WA: RICHLAND,01/14/2016 20:06:00,,2241.00,1316.00,380.00,201.00,130.00,152.00,96.00,45.00,APPROVED
WA: RICHLAND,01/14/2016 21:07:00,,2233.00,1305.00,380.00,203.00,131.00,152.00,97.00,45.00,APPROVED
WA: RICHLAND,01/14/2016 22:07:00,,2217.00,1316.00,380.00,200.00,132.00,152.00,95.00,43.00,APPROVED
WA: RICHLAND,01/14/2016 23:07:00,,2229.00,1314.00,376.00,201.00,133.00,153.00,97.00,45.00,APPROVED
WA: RICHLAND,01/15/2016 00:07:00,,2247.00,1332.00,382.00,203.00,131.00,153.00,97.00,45.00,APPROVED
WA: RICHLAND,01/15/2016 01:07:00,,2254.00,1359.00,385.00,211.00,134.00,157.00,99.00,45.00,APPROVED
WA: RICHLAND,01/15/2016 02:08:00,,2285.00,1384.00,391.00,217.00,137.00,161.00,102.00,46.00,APPROVED
WA: RICHLAND,01/15/2016 03:08:00,,2317.00,1395.00,396.00,221.00,138.00,162.00,102.00,46.00,APPROVED
WA: RICHLAND,01/15/2016 04:08:00,,2352.00,1418.00,403.00,224.00,141.00,165.00,102.00,48.00,APPROVED
WA: RICHLAND,01/15/2016 05:08:00,,2381.00,1433.00,406.00,223.00,140.00,172.00,105.00,47.00,APPROVED
WA: RICHLAND,01/15/2016 06:09:00,,2383.00,1455.00,411.00,228.00,139.00,168.00,105.00,47.00,APPROVED
WA: RICHLAND,01/15/2016 07:09:00,,2382.00,1451.00,413.00,228.00,144.00,173.00,103.00,46.00,APPROVED
WA: RICHLAND,01/15/2016 08:09:00,,2415.00,1456.00,417.00,229.00,143.00,170.00,104.00,46.00,APPROVED
WA: RICHLAND,01/15/2016 09:09:00,,2435.00,1476.00,425.00,232.00,145.00,172.00,106.00,48.00,APPROVED
WA: RICHLAND,01/15/2016 10:09:00,,2410.00,1471.00,420.00,234.00,145.00,174.00,106.00,46.00,APPROVED
WA: RICHLAND,01/15/2016 11:10:00,,2392.00,1472.00,423.00,238.00,145.00,175.00,103.00,48.00,APPROVED
WA: RICHLAND,01/15/2016 12:10:00,,2417.00,1482.00,426.00,235.00,147.00,177.00,107.00,48.00,APPROVED
WA: RICHLAND,01/15/2016 13:10:00,,2432.00,1513.00,433.00,244.00,149.00,183.00,108.00,48.00,APPROVED
WA: RICHLAND,01/15/2016 14:10:00,,2428.00,1502.00,437.00,246.00,150.00,181.00,108.00,50.00,APPROVED
WA: RICHLAND,01/15/2016 15:11:00,,2424.00,1494.00,429.00,244.00,150.00,181.00,109.00,48.00,APPROVED
WA: RICHLAND,01/15/2016 16:11:00,,2397.00,1484.00,423.00,245.00,146.00,177.00,108.00,46.00,APPROVED
WA: RICHLAND,01/15/2016 17:11:00,,2375.00,1449.00,419.00,233.00,142.00,174.00,107.00,48.00,APPROVED
WA: RICHLAND,01/15/2016 18:11:00,,2384.00,1443.00,422.00,235.00,146.00,174.00,104.00,49.00,APPROVED
WA: RICHLAND,01/15/2016 19:11:00,,2385.00,1443.00,417.00,229.00,143.00,173.00,104.00,47.00,APPROVED
WA: RICHLAND,01/15/2016 20:12:00,,2398.00,1455.00,415.00,234.00,145.00,175.00,105.00,47.00,APPROVED
WA: RICHLAND,01/15/2016 21:12:00,,2396.00,1457.00,420.00,237.00,142.00,172.00,103.00,49.00,APPROVED
WA: RICHLAND,01/15/2016 22:12:00,,2390.00,1451.00,420.00,231.00,146.00,170.00,104.00,49.00,APPROVED
WA: RICHLAND,01/15/2016 23:12:00,,2384.00,1444.00,417.00,231.00,144.00,171.00,103.00,47.00,APPROVED
WA: RICHLAND,01/16/2016 00:12:00,,2382.00,1439.00,414.00,231.00,144.00,167.00,104.00,47.00,APPROVED
WA: RICHLAND,01/16/2016 01:13:00,,2400.00,1468.00,415.00,232.00,144.00,172.00,107.00,47.00,APPROVED
WA: RICHLAND,01/16/2016 02:13:00,,2416.00,1483.00,424.00,241.00,145.00,174.00,108.00,47.00,APPROVED
WA: RICHLAND,01/16/2016 03:13:00,,2395.00,1472.00,420.00,244.00,145.00,175.00,107.00,48.00,APPROVED
WA: RICHLAND,01/16/2016 04:13:00,,2395.00,1483.00,426.00,245.00,148.00,176.00,105.00,47.00,APPROVED
WA: RICHLAND,01/16/2016 05:14:00,,2416.00,1506.00,424.00,245.00,146.00,180.00,109.00,49.00,APPROVED
WA: RICHLAND,01/16/2016 06:14:00,,2409.00,1494.00,430.00,250.00,149.00,179.00,110.00,49.00,APPROVED
WA: RICHLAND,01/16/2016 07:14:00,,2397.00,1482.00,424.00,248.00,148.00,177.00,111.00,49.00,APPROVED
WA: RICHLAND,01/16/2016 08:14:00,,2443.00,1515.00,432.00,253.00,150.00,182.00,115.00,48.00,APPROVED
WA: RICHLAND,01/16/2016 09:14:00,,2433.00,1519.00,438.00,252.00,149.00,183.00,111.00,49.00,APPROVED
WA: RICHLAND,01/16/2016 10:15:00,,2455.00,1532.00,429.00,257.00,152.00,182.00,110.00,50.00,APPROVED
WA: RICHLAND,01/16/2016 11:15:00,,2439.00,1533.00,437.00,253.00,153.00,186.00,111.00,48.00,APPROVED
WA: RICHLAND,01/16/2016 12:15:00,,2445.00,1540.00,441.00,261.00,151.00,186.00,111.00,50.00,APPROVED
WA: RICHLAND,01/16/2016 13:15:00,,2554.00,1630.00,459.00,271.00,158.00,196.00,118.00,51.00,APPROVED
WA: RICHLAND,01/16/2016 14:16:00,,2698.00,1759.00,490.00,299.00,165.00,213.00,122.00,53.00,APPROVED
WA: RICHLAND,01/16/2016 15:16:00,,2940.00,1986.00,552.00,342.00,183.00,236.00,135.00,55.00,APPROVED
WA: RICHLAND,01/16/2016 16:16:00,,2855.00,1898.00,539.00,335.00,180.00,231.00,133.00,57.00,APPROVED
WA: RICHLAND,01/16/2016 17:16:00,,2720.00,1794.00,514.00,321.00,172.00,217.00,133.00,55.00,APPROVED
WA: RICHLAND,01/16/2016 18:16:00,,2600.00,1721.00,494.00,305.00,169.00,218.00,126.00,52.00,APPROVED
WA: RICHLAND,01/16/2016 19:17:00,,2562.00,1683.00,488.00,300.00,166.00,212.00,122.00,52.00,APPROVED
WA: RICHLAND,01/16/2016 20:17:00,,2526.00,1656.00,476.00,291.00,162.00,203.00,122.00,52.00,APPROVED
WA: RICHLAND,01/16/2016 21:17:00,,2530.00,1633.00,468.00,286.00,159.00,201.00,121.00,52.00,APPROVED
WA: RICHLAND,01/16/2016 22:17:00,,2511.00,1625.00,458.00,285.00,159.00,193.00,120.00,51.00,APPROVED
WA: RICHLAND,01/16/2016 23:18:00,,2446.00,1560.00,445.00,260.00,155.00,191.00,114.00,51.00,APPROVED
WA: RICHLAND,01/17/2016 00:18:00,,2455.00,1551.00,442.00,256.00,154.00,187.00,113.00,50.00,APPROVED
WA: RICHLAND,01/17/2016 01:18:00,,2490.00,1582.00,455.00,266.00,152.00,188.00,115.00,49.00,APPROVED
WA: RICHLAND,01/17/2016 02:18:00,,2468.00,1551.00,447.00,258.00,152.00,187.00,112.00,50.00,APPROVED
WA: RICHLAND,01/17/2016 03:18:00,,2430.00,1529.00,436.00,255.00,150.00,182.00,110.00,48.00,APPROVED
WA: RICHLAND,01/17/2016 04:19:00,,2420.00,1520.00,425.00,250.00,152.00,185.00,112.00,49.00,APPROVED
WA: RICHLAND,01/17/2016 05:19:00,,2409.00,1521.00,440.00,262.00,150.00,185.00,113.00,50.00,APPROVED
WA: RICHLAND,01/17/2016 06:19:00,,2448.00,1547.00,441.00,261.00,153.00,187.00,113.00,50.00,APPROVED
WA: RICHLAND,01/17/2016 07:19:00,,2442.00,1542.00,440.00,263.00,152.00,189.00,114.00,51.00,APPROVED
WA: RICHLAND,01/17/2016 08:20:00,,2462.00,1582.00,452.00,270.00,157.00,192.00,115.00,52.00,APPROVED
WA: RICHLAND,01/17/2016 09:20:00,,2530.00,1653.00,475.00,289.00,162.00,205.00,122.00,52.00,APPROVED
WA: RICHLAND,01/17/2016 10:20:00,,2549.00,1691.00,481.00,302.00,165.00,212.00,124.00,53.00,APPROVED
WA: RICHLAND,01/17/2016 11:20:00,,2565.00,1711.00,490.00,304.00,167.00,212.00,126.00,51.00,APPROVED
WA: RICHLAND,01/17/2016 12:20:00,,2585.00,1712.00,487.00,304.00,168.00,211.00,127.00,55.00,APPROVED
WA: RICHLAND,01/17/2016 13:21:00,,2602.00,1740.00,498.00,312.00,170.00,213.00,129.00,52.00,APPROVED
WA: RICHLAND,01/17/2016 14:21:00,,2608.00,1738.00,496.00,318.00,171.00,215.00,126.00,56.00,APPROVED